Fort Smith, AR

3:28 AM CST on November 18, 2017 (GMT -0600)
Fort Smith Regional

Weather History for KFSM - February, 2013

Change the Weather History Date:

Sunday, February 10, 2013

  Actual Average Record
Temperature  
Mean Temperature 55 °F 43 °F  
Max Temperature 65 °F 54 °F 80 °F (1999)
Min Temperature 44 °F 32 °F 1 °F (1885)
Degree Days  
Heating Degree Days 10 22  
Month to date heating degree days 166 232  
Since 1 July heating degree days 1925 2323  
Growing Degree Days 3 (Base 50)    
Moisture  
Dew Point 41 °F    
Average Humidity 66    
Maximum Humidity 100    
Minimum Humidity 32    
Precipitation  
Precipitation 1.00 in 0.10 in 3.85 in (1884)
Month to date precipitation 1.69 0.96  
Year to date precipitation 5.66 3.77  
Sea Level Pressure  
Sea Level Pressure 29.79 in    
Wind  
Wind Speed 11 mph (NNE)    
Max Wind Speed 25 mph    
Max Gust Speed 31 mph    
Visibility 6 miles    
Events Rain , Thunderstorm    
T = Trace of Precipitation, MM = Missing Value Source: NWS Daily Summary

Daily Weather History Graph

Daily Weather History Graph

Search for Another Location

Airport or City:

Trip Planner

Search our weather history database for the weather conditions in past years. The results will help you decide how hot, cold, wet, or windy it might be!

Date:

Astronomy

Feb. 10, 2013 Rise Set
Actual Time 7:08 AM CST 5:55 PM CST
Civil Twilight 6:42 AM CST 6:21 PM CST
Nautical Twilight 6:12 AM CST 6:51 PM CST
Astronomical Twilight 5:42 AM CST 7:21 PM CST
Moon 7:01 AM CST (2/10) 6:42 PM CST (2/10)
Length of Visible Light 11h 38m
Length of Day
10h 46m
New Moon, 0% of the Moon is Illuminated
Feb 10
New Moon
Feb 17
First Quarter
Feb 25
Full
Mar 4
Last Quarter
Mar 11
New

Hourly Weather History & Observations

Time (CST) Temp. Windchill Dew Point Humidity Pressure Visibility Wind Dir Wind Speed Gust Speed Precip Events Conditions
12:32 AM 44.6 °F 37.8 °F 39.2 °F 81% 29.87 in 7.0 mi ENE 15.0 mph - N/A   Overcast
12:53 AM 45.0 °F 38.5 °F 41.0 °F 86% 29.85 in 7.0 mi East 13.8 mph - N/A   Overcast
1:39 AM 44.6 °F 38.1 °F 41.0 °F 87% 29.82 in 5.0 mi ENE 13.8 mph - N/A   Overcast
1:53 AM 45.0 °F 38.2 °F 41.0 °F 86% 29.80 in 5.0 mi ENE 15.0 mph - N/A   Overcast
2:53 AM 45.0 °F 38.9 °F 42.1 °F 90% 29.74 in 5.0 mi ENE 12.7 mph - N/A   Overcast
3:39 AM 46.4 °F 40.1 °F 42.8 °F 87% 29.75 in 5.0 mi ENE 15.0 mph - N/A Thunderstorm Overcast
3:53 AM 46.0 °F 40.6 °F 43.0 °F 89% 29.75 in 6.0 mi ENE 11.5 mph - 0.00 in Rain , Thunderstorm Light Rain
4:23 AM 46.4 °F 40.1 °F 42.8 °F 87% 29.72 in 1.8 mi East 15.0 mph 18.4 mph 0.18 in Rain , Thunderstorm Heavy Thunderstorms and Rain
4:47 AM 46.4 °F 41.9 °F 44.6 °F 93% 29.75 in 2.0 mi ENE 9.2 mph - 0.57 in Rain , Thunderstorm Thunderstorms and Rain
4:53 AM 46.0 °F 40.6 °F 44.1 °F 93% 29.73 in 2.5 mi East 11.5 mph - 0.59 in Rain , Thunderstorm Thunderstorms and Rain
5:03 AM 46.4 °F 43.5 °F 44.6 °F 93% 29.74 in 3.0 mi NE 5.8 mph - 0.03 in Rain , Thunderstorm Rain
5:23 AM 46.4 °F 42.4 °F 44.6 °F 93% 29.75 in 2.0 mi NNE 8.1 mph - 0.12 in Rain , Thunderstorm Thunderstorms and Rain
5:36 AM 46.4 °F 41.9 °F 44.6 °F 93% 29.76 in 2.5 mi ENE 9.2 mph - 0.21 in Rain Rain
5:40 AM 46.4 °F 42.9 °F 44.6 °F 93% 29.77 in 2.5 mi NE 6.9 mph - 0.22 in Rain Rain
5:48 AM 46.4 °F 42.4 °F 44.6 °F 93% 29.75 in 2.5 mi NE 8.1 mph - 0.27 in Rain Heavy Rain
5:53 AM 46.9 °F - 45.0 °F 93% 29.75 in 2.0 mi NE 8.1 mph - 0.32 in Rain Heavy Rain
6:01 AM 46.4 °F 38.3 °F 44.6 °F 93% 29.64 in 2.0 mi East 23.0 mph - 0.05 in Rain Heavy Rain
6:04 AM 46.4 °F 40.1 °F 44.6 °F 93% 29.67 in 1.8 mi East 15.0 mph 25.3 mph 0.07 in Rain Heavy Rain
6:09 AM 46.4 °F 42.4 °F 44.6 °F 93% 29.71 in 2.0 mi ENE 8.1 mph - 0.08 in Rain Light Rain
6:13 AM 46.4 °F 42.4 °F 46.4 °F 100% 29.71 in 3.0 mi NNE 8.1 mph - 0.08 in Rain Light Rain
6:20 AM 46.4 °F 42.4 °F 46.4 °F 100% 29.71 in 5.0 mi NE 8.1 mph - 0.09 in   Overcast
6:53 AM 48.0 °F - 48.0 °F 100% 29.72 in 5.0 mi ENE 5.8 mph - 0.09 in   Overcast
7:35 AM 48.2 °F - 48.2 °F 100% 29.71 in 1.8 mi NE 6.9 mph - 0.00 in   Overcast
7:53 AM 48.9 °F - 48.9 °F 100% 29.74 in 2.0 mi North 3.5 mph - 0.00 in   Overcast
8:18 AM 48.2 °F - 48.2 °F 100% 29.74 in 3.0 mi Calm Calm - N/A   Overcast
8:29 AM 50.0 °F - 50.0 °F 100% 29.74 in 4.0 mi Calm Calm - N/A   Overcast
8:53 AM 50.0 °F - 50.0 °F 100% 29.76 in 4.0 mi Calm Calm - N/A   Scattered Clouds
9:09 AM 51.8 °F - 51.8 °F 100% 29.76 in 6.0 mi Calm Calm - N/A   Scattered Clouds
9:53 AM 54.0 °F - 53.1 °F 97% 29.76 in 6.0 mi Calm Calm - N/A   Clear
10:53 AM 60.1 °F - 48.0 °F 64% 29.76 in 6.0 mi West 11.5 mph - N/A   Haze
11:53 AM 62.1 °F - 41.0 °F 46% 29.76 in 6.0 mi SW 13.8 mph - N/A   Haze
12:53 PM 64.0 °F - 37.0 °F 37% 29.73 in 7.0 mi WSW 13.8 mph - N/A   Clear
1:53 PM 64.0 °F - 35.1 °F 34% 29.73 in 10.0 mi West 19.6 mph 24.2 mph N/A   Clear
2:53 PM 63.0 °F - 32.0 °F 31% 29.75 in 9.0 mi West 20.7 mph 28.8 mph N/A   Clear
3:53 PM 63.0 °F - 33.1 °F 33% 29.78 in 10.0 mi WSW 17.3 mph 26.5 mph N/A   Clear
4:53 PM 61.0 °F - 35.1 °F 38% 29.80 in 10.0 mi West 15.0 mph - N/A   Clear
5:53 PM 57.0 °F - 35.1 °F 44% 29.83 in 10.0 mi West 8.1 mph - N/A   Clear
6:53 PM 52.0 °F - 35.1 °F 53% 29.87 in 10.0 mi SW 4.6 mph - N/A   Clear
7:53 PM 50.0 °F - 34.0 °F 54% 29.90 in 10.0 mi West 5.8 mph - N/A   Clear
8:53 PM 48.0 °F - 34.0 °F 58% 29.94 in 10.0 mi West 6.9 mph - N/A   Clear
9:53 PM 53.1 °F - 30.0 °F 41% 29.99 in 10.0 mi NW 16.1 mph 23.0 mph N/A   Clear
10:53 PM 51.1 °F - 27.0 °F 39% 30.04 in 10.0 mi NW 11.5 mph 20.7 mph N/A   Clear
11:53 PM 48.0 °F - 27.0 °F 44% 30.06 in 10.0 mi NW 10.4 mph - N/A   Clear